Weather in Uchkeken

Russia / Karachay-Cherkess Republic     43°56′20″N   42°30′55″E
temp.,
°C
wind,
m/s
gust,
m/s
humid.,
%
clouds,
%
prec.,
mm/h
press.,
hPa
HPBL,
m
17 april, sat
sat1700:00+7s1181100 0.0 101810
03:00+9ssw115898 0.0 101710
06:00+8nnw1173100 0.0 101931
09:00+8nw2489100 0.1 1021728
12:00+7n2495100 0.6 1022472
15:00+6nne2294100 0.9 1023360
18:00+5ene3498100 0.5 1022320
21:00+5ne1299100 0.6 1023218
18 april, sun
sun1800:00+5ene2299100 0.0 1022186
03:00+5e1197100 0.0 102014
06:00+6se1188100 0.0 101820
09:00+11e2273100 0.0 1016270
12:00+13ne3274100 1.2 1016508
15:00+12ne2283100 2.8 1017409
18:00+12ne11855 2.3 1016153
21:00+9sw1194100 4.5 101711
19 april, mon
mon1900:00+9s2276100 0.5 101713
03:00+10s2268100 0.5 101614
06:00+11s3269100 0.1 101620
09:00+15ese1257100 0.1 1016559
12:00+18e445092 0.1 10131552
15:00+18ene3357100 0.6 10131099
18:00+13nne2387100 1.1 1015313
21:00+12e4992100 2.1 1014403
20 april, tue
tue2000:00+10se228996 0.0 101230
03:00+12sse3269100 0.1 100826
06:00+13s3363100 0.0 100634
09:00+21s3850100 0.0 1004443
12:00+22wsw0243100 0.0 1004629
15:00+21wnw3453100 0.0 1004416
18:00+14nnw5889100 0.1 1008553
21:00+10n2294100 1.1 1012329
21 april, wed
wed2100:00+9e1290100 0.1 1015235
03:00+9ese2490100 0.3 1015218
06:00+9e4989100 0.0 1015539
09:00+7e5994100 0.6 1018630
12:00+8e7987100 0.1 1018704
15:00+8e6884100 0.1 1019662
18:00+7e61086100 0.1 1020754
21:00+6e5987100 0.1 1022564